User: anonymous   Login
Location: G�ppingen
(48.7089°N, 9.6563°E)
Time: 18:43:20
(UTC+02:00)
Language:

AO-7 - Orbit

View from above orbital plane
View from above orbital plane
View from above satellite
View from above satellite

Ground track
Ground track

The orbit data is extracted from the following two-line orbital elements,

1  7530U 74089B   19286.85299903 -.00000039 +00000-0 +39423-4 0  9992
2  7530 101.7600 253.3737 0012375 119.6965 294.2899 12.53640360054964
Epoch (UTC): 13 October 2019 20:28:19
Eccentricity: 0.0012375
inclination: 101.7600°
perigee height: 1439 km
apogee height: 1459 km
right ascension of ascending node: 253.3737°
argument of perigee: 119.6965°
revolutions per day: 12.53640360
mean anomaly at epoch: 294.2899°
orbit number at epoch: 5496

The dashed part of the orbit path shows where the satellite is in the earth's shadow,  

DLR